TimeEDT,TemperatureF,Dew PointF,Humidity,Sea Level PressureIn,VisibilityMPH,Wind Direction,Wind SpeedMPH,Gust SpeedMPH,PrecipitationIn,Events,Conditions,WindDirDegrees,DateUTC
12:54 AM,36.0,21.9,57,30.25,10.0,Calm,Calm,-,N/A,,Clear,0,2013-03-30 04:54:00
1:54 AM,32.0,25.0,75,30.25,10.0,Calm,Calm,-,N/A,,Clear,0,2013-03-30 05:54:00
2:54 AM,30.0,25.0,82,30.25,10.0,Calm,Calm,-,N/A,,Clear,0,2013-03-30 06:54:00
3:54 AM,28.9,25.0,85,30.25,10.0,Calm,Calm,-,N/A,,Clear,0,2013-03-30 07:54:00
4:54 AM,28.9,23.0,78,30.24,10.0,Calm,Calm,-,N/A,,Clear,0,2013-03-30 08:54:00
5:54 AM,28.9,23.0,78,30.23,10.0,Calm,Calm,-,N/A,,Partly Cloudy,0,2013-03-30 09:54:00
6:54 AM,28.0,24.1,85,30.24,10.0,Calm,Calm,-,N/A,,Scattered Clouds,0,2013-03-30 10:54:00
7:54 AM,27.0,24.1,89,30.26,10.0,South,4.6,-,N/A,,Partly Cloudy,190,2013-03-30 11:54:00
8:54 AM,34.0,28.0,79,30.24,10.0,Calm,Calm,-,N/A,,Partly Cloudy,0,2013-03-30 12:54:00
9:54 AM,39.9,28.0,63,30.22,10.0,South,4.6,-,N/A,,Partly Cloudy,170,2013-03-30 13:54:00
10:54 AM,46.0,27.0,47,30.22,10.0,SSW,10.4,-,N/A,,Scattered Clouds,200,2013-03-30 14:54:00
11:54 AM,48.9,27.0,43,30.19,10.0,SSW,6.9,-,N/A,,Partly Cloudy,210,2013-03-30 15:54:00
12:54 PM,52.0,33.1,49,30.16,10.0,SSW,10.4,-,N/A,,Scattered Clouds,210,2013-03-30 16:54:00
1:54 PM,53.1,32.0,45,30.13,10.0,SSW,10.4,-,N/A,,Scattered Clouds,210,2013-03-30 17:54:00
2:54 PM,54.0,33.1,45,30.12,10.0,SSW,10.4,-,N/A,,Mostly Cloudy,200,2013-03-30 18:54:00
3:54 PM,54.0,33.1,45,30.09,10.0,SW,8.1,-,N/A,,Overcast,220,2013-03-30 19:54:00
4:54 PM,53.1,32.0,45,30.06,10.0,SSW,10.4,-,N/A,,Overcast,210,2013-03-30 20:54:00
5:54 PM,54.0,32.0,43,30.04,10.0,SSW,6.9,-,N/A,,Overcast,200,2013-03-30 21:54:00
6:54 PM,52.0,34.0,50,30.03,10.0,SSW,8.1,-,N/A,,Overcast,200,2013-03-30 22:54:00
7:54 PM,50.0,35.1,57,30.01,10.0,South,4.6,-,N/A,,Overcast,190,2013-03-30 23:54:00
8:54 PM,46.9,36.0,66,29.99,10.0,SE,4.6,-,N/A,,Overcast,140,2013-03-31 00:54:00
9:54 PM,46.0,35.1,66,29.97,10.0,SE,3.5,-,N/A,,Overcast,140,2013-03-31 01:54:00
10:54 PM,44.1,36.0,73,29.96,10.0,SE,4.6,-,N/A,,Overcast,140,2013-03-31 02:54:00
11:54 PM,42.1,35.1,76,29.94,9.0,Calm,Calm,-,N/A,,Overcast,0,2013-03-31 03:54:00